W1CCE Weather Reports


Display with metric or nautical units.
time (UTC)temp
F
wind
direction
speed
MPH
gust
MPH
rain 1hr
in
rain 24hr
in
rain mn
in
humidity
%
barometer
mb
20191022210150 55 89 0.0 6.0 0.00 0.00 0.00 100 1011.6
20191022205709 54 77 0.0 6.0 0.00 0.00 0.00 100 1011.6
20191022205149 55 56 0.0 6.0 0.00 0.00 0.00 100 1011.6
20191022204709 55 56 0.0 6.0 0.00 0.00 0.00 100 1012.1
20191022204229 55 86 0.0 0.0 0.00 0.00 0.00 100 1012.1
20191022203709 55 98 0.0 0.0 0.00 0.00 0.00 100 1012.1
20191022203209 55 98 0.0 10.0 0.00 0.00 0.00 100 1012.0
20191022202649 55 109 0.0 10.0 0.00 0.00 0.00 100 1012.0
20191022202149 55 38 0.0 10.0 0.00 0.00 0.00 100 1012.0
20191022201649 55 70 1.0 10.0 0.00 0.00 0.00 100 1012.2
20191022201149 55 92 5.0 6.0 0.00 0.00 0.00 100 1012.2
20191022200649 55 175 0.0 0.0 0.00 0.00 0.00 100 1012.2
20191022200249 55 40 0.0 8.0 0.00 0.00 0.00 100 1012.7
20191022195709 55 64 0.0 8.0 0.00 0.00 0.00 100 1012.7
20191022195209 55 40 0.0 8.0 0.00 0.00 0.00 100 1012.7
20191022194808 56 57 3.0 6.0 0.00 0.00 0.00 100 1012.9
20191022194149 56 114 0.0 6.0 0.00 0.00 0.00 100 1012.9
20191022193729 55 86 0.0 6.0 0.00 0.00 0.00 100 1012.9
20191022193208 55 46 0.0 3.0 0.00 0.00 0.00 100 1013.0
20191022192648 55 102 0.0 1.0 0.00 0.00 0.00 100 1013.0
20191022192208 55 102 0.0 1.0 0.00 0.00 0.00 100 1013.0
20191022191648 55 53 0.0 0.0 0.00 0.00 0.00 100 1013.3
20191022191148 55 54 0.0 0.0 0.00 0.00 0.00 100 1013.3
20191022190708 56 308 0.0 0.0 0.00 0.00 0.00 100 1013.3
20191022190208 56 17 0.0 6.0 0.00 0.00 0.00 100 1013.4
20191022185648 55 46 0.0 6.0 0.00 0.00 0.00 100 1013.4
20191022185148 56 74 0.0 6.0 0.00 0.00 0.00 100 1013.4
20191022184648 56 107 0.0 4.0 0.00 0.00 0.00 100 1013.7
20191022184208 56 107 0.0 4.0 0.00 0.00 0.00 100 1013.7
20191022183647 56 99 0.0 3.0 0.00 0.00 0.00 100 1013.7
20191022183207 56 46 0.0 5.0 0.00 0.00 0.00 100 1013.7
20191022182708 56 92 0.0 4.0 0.00 0.00 0.00 100 1013.7
20191022182147 56 92 0.0 4.0 0.00 0.00 0.00 100 1013.7
20191022181707 56 96 0.0 4.0 0.00 0.00 0.00 100 1014.2
20191022181147 56 101 0.0 0.0 0.00 0.00 0.00 100 1014.2
20191022180727 56 125 0.0 0.0 0.00 0.00 0.00 100 1014.2
20191022180147 56 126 0.0 6.0 0.00 0.00 0.00 100 1014.3
20191022175647 56 102 0.0 6.0 0.00 0.00 0.00 100 1014.3
20191022175207 56 55 0.0 4.0 0.00 0.00 0.00 100 1014.3
20191022174647 56 50 0.0 4.0 0.00 0.00 0.00 100 1014.5
20191022174147 56 19 2.0 2.0 0.00 0.00 0.00 100 1014.5
20191022173647 56 51 0.0 0.0 0.00 0.00 0.00 100 1014.5
20191022173147 56 43 0.0 4.0 0.00 0.00 0.00 100 1014.4
20191022172647 56 43 0.0 4.0 0.00 0.00 0.00 100 1014.4
20191022172207 56 52 0.0 4.0 0.00 0.00 0.00 100 1014.4
20191022171647 56 77 0.0 4.0 0.00 0.00 0.00 100 1014.5
20191022171226 56 77 0.0 4.0 0.00 0.00 0.00 100 1014.5
20191022170646 56 91 0.0 0.0 0.00 0.00 0.00 100 1014.5
20191022170226 57 91 0.0 3.0 0.00 0.00 0.00 100 1014.7
20191022165646 57 94 0.0 3.0 0.00 0.00 0.00 100 1014.7
20191022165146 57 94 0.0 3.0 0.00 0.00 0.00 100 1014.7
20191022164646 57 94 0.0 3.0 0.00 0.00 0.00 100 1014.5
20191022164206 57 99 0.0 3.0 0.00 0.00 0.00 100 1014.5
20191022163706 57 90 0.0 3.0 0.00 0.00 0.00 100 1014.5
20191022163146 57 63 0.0 3.0 0.00 0.00 0.00 100 1014.7
20191022162646 57 163 0.0 3.0 0.00 0.00 0.00 100 1014.7
20191022162146 57 38 0.0 3.0 0.00 0.00 0.00 100 1014.7
20191022161706 57 38 0.0 3.0 0.00 0.00 0.00 100 1014.7
20191022161146 57 38 0.0 3.0 0.00 0.00 0.00 100 1014.7
20191022160646 57 29 0.0 3.0 0.00 0.00 0.00 100 1014.7
20191022160146 58 26 0.0 4.0 0.00 0.00 0.00 100 1014.8
20191022155705 58 131 0.0 4.0 0.00 0.00 0.00 100 1014.8
20191022155205 58 131 0.0 4.0 0.00 0.00 0.00 100 1014.8
20191022154645 58 102 0.0 4.0 0.00 0.00 0.00 100 1014.8
20191022154145 57 81 0.0 4.0 0.00 0.00 0.00 100 1014.8
20191022153745 57 72 1.0 4.0 0.00 0.00 0.00 100 1014.8
20191022153145 57 56 0.0 5.0 0.00 0.00 0.00 100 1014.8
20191022152645 57 112 0.0 5.0 0.00 0.00 0.00 100 1014.8
20191022152145 56 94 0.0 5.0 0.00 0.00 0.00 100 1014.8
20191022151705 56 107 0.0 5.0 0.00 0.00 0.00 100 1014.9
20191022151145 55 78 0.0 0.0 0.00 0.00 0.00 100 1014.9
20191022150905 54 78 0.0 0.0 0.00 0.00 0.00 100 1014.9
20191022150205 53 109 0.0 0.0 0.00 0.00 0.00 100 1015.2
20191022145645 53 109 0.0 0.0 0.00 0.00 0.00 100 1015.2
20191022145144 53 346 0.0 0.0 0.00 0.00 0.00 100 1015.2
20191022144745 53 303 0.0 0.0 0.00 0.00 0.00 100 1015.4
20191022144144 52 93 0.0 0.0 0.00 0.00 0.00 100 1015.4
20191022143744 51 57 0.0 0.0 0.00 0.00 0.00 100 1015.4
20191022143224 50 360 0.0 5.0 0.00 0.00 0.00 100 1015.9
20191022142725 50 57 0.0 5.0 0.00 0.00 0.00 100 1015.9
20191022142145 49 57 0.0 5.0 0.00 0.00 0.00 100 1015.9
20191022141645 49 47 0.0 5.0 0.00 0.00 0.00 100 1016.0
20191022141144 49 38 0.0 4.0 0.00 0.00 0.00 100 1016.0
20191022140645 49 47 0.0 4.0 0.00 0.00 0.00 100 1016.0
20191022140144 48 74 0.0 5.0 0.00 0.00 0.00 100 1016.2
20191022135724 49 78 0.0 5.0 0.00 0.00 0.00 100 1016.2
20191022135144 48 48 0.0 3.0 0.00 0.00 0.00 100 1016.2
20191022134644 48 103 0.0 3.0 0.00 0.00 0.00 100 1016.5
20191022134143 47 43 0.0 3.0 0.00 0.00 0.00 100 1016.5
20191022133644 47 43 0.0 3.0 0.00 0.00 0.00 100 1016.5
20191022133143 47 44 0.0 0.0 0.00 0.00 0.00 100 1017.0
20191022132703 47 44 0.0 0.0 0.00 0.00 0.00 100 1017.0
20191022132143 46 44 0.0 0.0 0.00 0.00 0.00 100 1017.0
20191022131643 46 44 0.0 0.0 0.00 0.00 0.00 100 1016.5
20191022131203 46 44 0.0 0.0 0.00 0.00 0.00 100 1016.5
20191022130703 46 44 0.0 0.0 0.00 0.00 0.00 100 1016.5
20191022130203 46 53 0.0 5.0 0.00 0.00 0.00 100 1016.9
20191022125942 46 53 0.0 5.0 0.00 0.00 0.00 100 1016.9
20191022125243 46 44 0.0 5.0 0.00 0.00 0.00 100 1016.9
20191022124643 46 58 0.0 5.0 0.00 0.00 0.00 100 1016.8
20191022124143 46 57 0.0 4.0 0.00 0.00 0.00 100 1016.8
20191022123643 46 60 0.0 0.0 0.00 0.00 0.00 100 1016.8
20191022123223 46 60 0.0 0.0 0.00 0.00 0.00 100 1016.4
20191022122643 46 60 0.0 0.0 0.00 0.00 0.00 100 1016.4
20191022122143 46 60 0.0 0.0 0.00 0.00 0.00 100 1016.4
20191022121702 46 60 0.0 0.0 0.00 0.00 0.00 100 1015.9
20191022121142 45 60 0.0 0.0 0.00 0.00 0.00 100 1015.9
20191022120802 45 60 0.0 0.0 0.00 0.00 0.00 100 1015.9
20191022120142 45 60 0.0 0.0 0.00 0.00 0.00 100 1016.1
20191022115642 46 60 0.0 0.0 0.00 0.00 0.00 100 1016.1
20191022115142 46 60 0.0 0.0 0.00 0.00 0.00 100 1016.1
20191022114642 46 60 0.0 0.0 0.00 0.00 0.00 100 1016.0
20191022114142 45 60 0.0 0.0 0.00 0.00 0.00 100 1016.0
20191022113702 45 60 0.0 0.0 0.00 0.00 0.00 100 1016.0
20191022113142 45 61 0.0 3.0 0.00 0.00 0.00 100 1015.9
20191022112642 45 61 0.0 3.0 0.00 0.00 0.00 100 1015.9
20191022112142 45 60 0.0 3.0 0.00 0.00 0.00 100 1015.9
20191022111702 45 61 0.0 3.0 0.00 0.00 0.00 100 1015.9
20191022111201 46 45 0.0 0.0 0.00 0.00 0.00 100 1015.9
20191022110642 46 45 0.0 0.0 0.00 0.00 0.00 100 1015.9
20191022110141 46 45 0.0 0.0 0.00 0.00 0.00 100 1016.0
20191022105641 46 68 0.0 0.0 0.00 0.00 0.00 100 1016.0
20191022105201 46 271 0.0 0.0 0.00 0.00 0.00 100 1016.0
20191022104643 46 26 0.0 0.0 0.00 0.00 0.00 100 1015.9
20191022104141 46 26 0.0 0.0 0.00 0.00 0.00 100 1015.9
20191022103701 46 49 0.0 0.0 0.00 0.00 0.00 100 1015.9
20191022103201 46 49 0.0 0.0 0.00 0.00 0.00 100 1015.8
20191022102721 46 49 0.0 0.0 0.00 0.00 0.00 100 1015.8
20191022102141 46 49 0.0 0.0 0.00 0.00 0.00 100 1015.8
20191022101641 46 49 0.0 0.0 0.00 0.00 0.00 100 1015.4
20191022101201 46 49 0.0 0.0 0.00 0.00 0.00 100 1015.4
20191022100641 46 49 0.0 0.0 0.00 0.00 0.00 100 1015.4
20191022100141 46 49 0.0 1.0 0.00 0.00 0.00 100 1015.4
20191022095640 46 49 0.0 1.0 0.00 0.00 0.00 100 1015.4
20191022095200 46 49 0.0 1.0 0.00 0.00 0.00 100 1015.4
20191022094720 46 49 0.0 1.0 0.00 0.00 0.00 100 1015.5
20191022094140 46 40 0.0 1.0 0.00 0.00 0.00 100 1015.5
20191022093700 46 36 0.0 1.0 0.00 0.00 0.00 100 1015.5
20191022093200 46 55 0.0 3.0 0.00 0.00 0.00 100 1015.5
20191022092640 46 15 0.0 3.0 0.00 0.00 0.00 100 1015.5
20191022092140 46 53 0.0 0.0 0.00 0.00 0.00 100 1015.5
20191022091820 46 53 0.0 0.0 0.00 0.00 0.00 100 1015.8
20191022091140 45 54 0.0 0.0 0.00 0.00 0.00 100 1015.8
20191022090640 45 55 0.0 0.0 0.00 0.00 0.00 100 1015.8
20191022090140 45 55 0.0 0.0 0.00 0.00 0.00 100 1015.8
20191022085640 45 55 0.0 0.0 0.00 0.00 0.00 100 1015.8
20191022085140 45 55 0.0 0.0 0.00 0.00 0.00 100 1015.8
20191022084639 45 55 0.0 0.0 0.00 0.00 0.00 100 1016.0
20191022084140 45 55 0.0 0.0 0.00 0.00 0.00 100 1016.0
20191022083639 45 55 0.0 0.0 0.00 0.00 0.00 100 1016.0
20191022083159 45 55 0.0 0.0 0.00 0.00 0.00 100 1015.9
20191022082659 45 55 0.0 0.0 0.00 0.00 0.00 100 1015.9
20191022082159 45 55 0.0 0.0 0.00 0.00 0.00 100 1015.9
20191022081639 45 55 0.0 0.0 0.00 0.00 0.00 100 1015.7
20191022081159 45 55 0.0 0.0 0.00 0.00 0.00 100 1015.7
20191022080719 45 55 0.0 0.0 0.00 0.00 0.00 100 1015.7
20191022080139 45 55 0.0 0.0 0.00 0.00 0.00 100 1015.8
20191022075639 45 55 0.0 0.0 0.00 0.00 0.00 100 1015.8
20191022075139 45 55 0.0 0.0 0.00 0.00 0.00 100 1015.8
20191022074659 45 55 0.0 0.0 0.00 0.00 0.00 100 1015.9
20191022074139 45 55 0.0 0.0 0.00 0.00 0.00 100 1015.9
20191022073701 45 55 0.0 0.0 0.00 0.00 0.00 100 1015.9
20191022073138 44 55 0.0 0.0 0.00 0.00 0.00 100 1016.1
20191022072718 44 55 0.0 0.0 0.00 0.00 0.00 100 1016.1
20191022072139 44 55 0.0 0.0 0.00 0.00 0.00 100 1016.1
20191022071638 44 55 0.0 0.0 0.00 0.00 0.00 100 1016.3
20191022071158 44 55 0.0 0.0 0.00 0.00 0.00 100 1016.3
20191022070658 44 55 0.0 0.0 0.00 0.00 0.00 100 1016.3
20191022070238 44 55 0.0 0.0 0.00 0.00 0.00 100 1016.6
20191022065638 44 55 0.0 0.0 0.00 0.00 0.00 100 1016.6
20191022065138 44 55 0.0 0.0 0.00 0.00 0.00 100 1016.6
20191022064638 44 55 0.0 0.0 0.00 0.00 0.00 100 1016.3
20191022064158 44 55 0.0 0.0 0.00 0.00 0.00 100 1016.3
20191022063739 44 55 0.0 0.0 0.00 0.00 0.00 100 1016.3
20191022063139 43 55 0.0 0.0 0.00 0.00 0.00 100 1016.3
20191022062638 43 55 0.0 0.0 0.00 0.00 0.00 100 1016.3
20191022062138 43 55 0.0 0.0 0.00 0.00 0.00 100 1016.3
20191022061638 43 55 0.0 0.0 0.00 0.00 0.00 100 1016.3
20191022061137 43 55 0.0 0.0 0.00 0.00 0.00 100 1016.3
20191022060738 43 55 0.0 0.0 0.00 0.00 0.00 100 1016.3
20191022060138 43 55 0.0 3.0 0.00 0.00 0.00 100 1016.3
20191022055657 43 55 0.0 3.0 0.00 0.00 0.00 100 1016.3
20191022055157 43 53 0.0 0.0 0.00 0.00 0.00 100 1016.3
20191022054757 42 65 0.0 0.0 0.00 0.00 0.00 100 1016.4
20191022054137 42 38 0.0 0.0 0.00 0.00 0.00 100 1016.4
20191022053637 43 38 0.0 0.0 0.00 0.00 0.00 100 1016.4
20191022053158 42 38 0.0 0.0 0.00 0.00 0.00 100 1016.7
20191022052657 41 38 0.0 0.0 0.00 0.00 0.00 100 1016.7
20191022052137 41 38 0.0 0.0 0.00 0.00 0.00 100 1016.7
20191022051637 41 38 0.0 0.0 0.00 0.00 0.00 100 1016.7
20191022051157 41 38 0.0 0.0 0.00 0.00 0.00 100 1016.7
20191022050657 41 38 0.0 0.0 0.00 0.00 0.00 100 1016.7
20191022050136 41 38 0.0 0.0 0.00 0.00 0.00 100 1016.4
20191022045656 40 38 0.0 0.0 0.00 0.00 0.00 100 1016.4
20191022045216 40 38 0.0 0.0 0.00 0.00 0.00 100 1016.4
20191022044636 40 38 0.0 0.0 0.00 0.00 0.00 100 1016.1
20191022044136 41 38 0.0 0.0 0.00 0.00 0.00 100 1016.1
20191022043656 41 38 0.0 0.0 0.00 0.00 0.00 100 1016.1
20191022043136 41 38 0.0 0.0 0.00 0.00 0.00 100 1016.2
20191022042636 41 38 0.0 0.0 0.00 0.00 0.00 100 1016.2
20191022042156 41 38 0.0 0.0 0.00 0.00 0.00 100 1016.2
20191022041716 41 38 0.0 0.0 0.00 0.00 0.00 100 1016.0
20191022041156 41 38 0.0 0.0 0.00 0.00 0.00 100 1016.0
20191022040636 41 38 0.0 0.0 0.00 0.00 0.00 100 1016.0
20191022040136 42 38 0.0 0.0 0.00 0.00 0.00 100 1016.5
20191022035736 42 38 0.0 0.0 0.00 0.00 0.00 100 1016.5
20191022035136 42 38 0.0 0.0 0.00 0.00 0.00 100 1016.5
20191022034636 42 38 0.0 0.0 0.00 0.00 0.00 100 1016.4
20191022034135 42 38 0.0 0.0 0.00 0.00 0.00 100 1016.4
20191022033635 41 38 0.0 0.0 0.00 0.00 0.00 100 1016.4
20191022033155 42 38 0.0 0.0 0.00 0.00 0.00 100 1016.5
20191022032635 42 38 0.0 0.0 0.00 0.00 0.00 100 1016.5
20191022032135 42 38 0.0 0.0 0.00 0.00 0.00 100 1016.5
20191022031635 42 38 0.0 0.0 0.00 0.00 0.00 100 1016.8
20191022031135 42 38 0.0 0.0 0.00 0.00 0.00 100 1016.8
20191022030635 42 38 0.0 0.0 0.00 0.00 0.00 100 1016.8
20191022030135 42 38 0.0 0.0 0.00 0.00 0.00 100 1016.8
20191022025715 42 38 0.0 0.0 0.00 0.00 0.00 100 1016.8
20191022025135 42 38 0.0 0.0 0.00 0.00 0.00 100 1016.8
20191022024635 43 38 0.0 0.0 0.00 0.00 0.00 100 1016.7
20191022024135 43 38 0.0 0.0 0.00 0.00 0.00 100 1016.7
20191022023635 43 38 0.0 0.0 0.00 0.00 0.00 100 1016.7
20191022023134 43 38 0.0 0.0 0.00 0.00 0.00 100 1017.0
20191022022654 43 38 0.0 0.0 0.00 0.00 0.00 100 1017.0
20191022022134 43 38 0.0 0.0 0.00 0.00 0.00 100 1017.0
20191022021634 43 38 0.0 0.0 0.00 0.00 0.00 100 1017.1
20191022021134 43 38 0.0 0.0 0.00 0.00 0.00 100 1017.1
20191022020634 43 38 0.0 0.0 0.00 0.00 0.00 100 1017.1
20191022020134 43 38 0.0 0.0 0.00 0.00 0.00 100 1016.9
20191022015634 43 38 0.0 0.0 0.00 0.00 0.00 100 1016.9
20191022015134 43 38 0.0 0.0 0.00 0.00 0.00 100 1016.9
20191022014634 44 38 0.0 0.0 0.00 0.00 0.00 100 1016.9
20191022014134 44 38 0.0 0.0 0.00 0.00 0.00 100 1016.9
20191022013654 44 38 0.0 0.0 0.00 0.00 0.00 100 1016.9
20191022013134 44 38 0.0 0.0 0.00 0.00 0.00 100 1017.0
20191022012634 44 38 0.0 0.0 0.00 0.00 0.00 100 1017.0
20191022012134 44 38 0.0 0.0 0.00 0.00 0.00 100 1017.0
20191022011634 44 38 0.0 0.0 0.00 0.00 0.00 100 1016.8
20191022011134 44 38 0.0 0.0 0.00 0.00 0.00 100 1016.8
20191022010633 45 38 0.0 0.0 0.00 0.00 0.00 100 1016.8
20191022010133 45 38 0.0 0.0 0.00 0.00 0.00 100 1016.5
20191022005654 45 38 0.0 0.0 0.00 0.00 0.00 100 1016.5
20191022005153 45 38 0.0 0.0 0.00 0.00 0.00 100 1016.5
20191022004633 45 38 0.0 0.0 0.00 0.00 0.00 100 1016.0
20191022004133 45 38 0.0 0.0 0.00 0.00 0.00 100 1016.0
20191022003633 46 38 0.0 0.0 0.00 0.00 0.00 100 1016.0
20191022003133 45 37 0.0 0.0 0.00 0.00 0.00 100 1015.9
20191022002633 46 38 0.0 0.0 0.00 0.00 0.00 100 1015.9
20191022002133 46 38 0.0 0.0 0.00 0.00 0.00 100 1015.9
20191022001633 46 38 0.0 0.0 0.00 0.00 0.00 100 1015.9
20191022001132 46 38 0.0 0.0 0.00 0.00 0.00 100 1015.9
20191022000633 46 38 0.0 0.0 0.00 0.00 0.00 100 1015.9
20191022000153 46 38 0.0 0.0 0.00 0.00 0.00 100 1016.0
20191021235632 46 38 0.0 0.0 0.00 0.00 0.00 100 1016.0
20191021235152 47 38 0.0 0.0 0.00 0.00 0.00 100 1016.0
20191021234632 47 38 0.0 0.0 0.00 0.00 0.00 100 1016.0
20191021234152 47 38 0.0 0.0 0.00 0.00 0.00 100 1016.0
20191021233652 48 38 0.0 0.0 0.00 0.00 0.00 100 1016.0
20191021233212 47 38 0.0 0.0 0.00 0.00 0.00 100 1015.9
20191021232712 48 38 0.0 0.0 0.00 0.00 0.00 100 1015.9
20191021232212 48 38 0.0 0.0 0.00 0.00 0.00 100 1015.9
20191021231712 48 38 0.0 0.0 0.00 0.00 0.00 100 1015.9
20191021231132 48 38 0.0 0.0 0.00 0.00 0.00 100 1015.9
20191021230812 49 38 0.0 0.0 0.00 0.00 0.00 100 1015.9
20191021230132 49 38 0.0 0.0 0.00 0.00 0.00 100 1015.9
20191021225632 49 38 0.0 0.0 0.00 0.00 0.00 100 1015.9
20191021225152 49 38 0.0 0.0 0.00 0.00 0.00 100 1015.9
20191021224651 50 38 0.0 0.0 0.00 0.00 0.00 100 1015.8
20191021224131 50 38 0.0 0.0 0.00 0.00 0.00 100 1015.8
20191021223631 50 38 0.0 0.0 0.00 0.00 0.00 100 1015.8
20191021223231 50 38 0.0 0.0 0.00 0.00 0.00 100 1015.4
20191021222651 51 38 0.0 0.0 0.00 0.00 0.00 97 1015.4
20191021222151 51 38 0.0 0.0 0.00 0.00 0.00 92 1015.4
20191021221631 52 38 0.0 0.0 0.00 0.00 0.00 90 1015.4
20191021221131 52 38 0.0 0.0 0.00 0.00 0.00 87 1015.4
20191021220631 53 38 0.0 0.0 0.00 0.00 0.00 85 1015.4
20191021220151 53 38 0.0 0.0 0.00 0.00 0.00 84 1015.3
20191021215731 53 38 0.0 0.0 0.00 0.00 0.00 84 1015.3
20191021215131 54 38 0.0 0.0 0.00 0.00 0.00 82 1015.3
20191021214631 54 38 0.0 0.0 0.00 0.00 0.00 81 1015.3
20191021214211 54 38 0.0 0.0 0.00 0.00 0.00 80 1015.3
20191021213651 55 38 0.0 0.0 0.00 0.00 0.00 78 1015.3
20191021213130 56 38 0.0 0.0 0.00 0.00 0.00 77 1014.9
20191021212630 56 38 0.0 0.0 0.00 0.00 0.00 76 1014.9
20191021212150 56 38 0.0 0.0 0.00 0.00 0.00 75 1014.9
20191021211630 57 38 0.0 0.0 0.00 0.00 0.00 73 1014.8
20191021211130 57 38 0.0 0.0 0.00 0.00 0.00 73 1014.8
20191021210630 58 38 0.0 0.0 0.00 0.00 0.00 71 1014.8